Change the Weather History Date:

Saturday, April 20, 2013

  Actual Average Record
Temperature  
Mean Temperature 56 °F -  
Max Temperature 62 °F 70 °F 77 °F (2007)
Min Temperature 50 °F 50 °F 44 °F (1999)
Degree Days  
Heating Degree Days 9    
Growing Degree Days 6 (Base 50)    
Moisture  
Dew Point 50 °F    
Average Humidity 76    
Maximum Humidity 94    
Minimum Humidity 55    
Precipitation  
Precipitation 0.00 in 0.07 in - ()
Sea Level Pressure  
Sea Level Pressure 29.99 in    
Wind  
Wind Speed 4 mph ()    
Max Wind Speed 9 mph    
Max Gust Speed -    
Visibility 5.7 miles    
Events Rain    
Averages and records for this station are not official NWS values.
T = Trace of Precipitation, MM = Missing Value Source: Averaged Metar Reports

Daily Weather History Graph

Daily Weather History Graph

Search for Another Location

Airport or City:

Trip Planner

Search our weather history database for the weather conditions in past years. The results will help you decide how hot, cold, wet, or windy it might be!

Date:

Astronomy

Apr. 20, 2013 Rise Set
Actual Time 6:21 AM CEST 7:56 PM CEST
Civil Twilight 5:52 AM CEST 8:25 PM CEST
Nautical Twilight 5:17 AM CEST 9:00 PM CEST
Astronomical Twilight 4:39 AM CEST 9:38 PM CEST
Moon 2:18 PM CEST (4/20) 3:06 AM CEST (4/20)
Length of Visible Light 14h 32m
Length of Day
13h 34m
Waxing Gibbous, 68% of the Moon is Illuminated
Apr 20
Waxing Gibbous
Apr 25
Full
May 2
Last Quarter
May 10
New
May 18
First Quarter

Hourly Weather History & Observations

Time (CEST) Temp. Dew Point Humidity Pressure Visibility Wind Dir Wind Speed Gust Speed Precip Events Conditions
12:15 AM 59.0 °F 46.4 °F 63% 29.98 in 6.2 mi SSE 1.2 mph - N/A   Partly Cloudy
12:45 AM 55.4 °F 46.4 °F 72% 29.98 in - ESE 3.5 mph - N/A   Clear
1:15 AM 57.2 °F 46.4 °F 67% 29.98 in - ESE 3.5 mph - N/A   Clear
1:45 AM 57.2 °F 46.4 °F 67% 29.95 in - SSE 1.2 mph - N/A   Clear
2:15 AM 53.6 °F 46.4 °F 77% 29.95 in - South 1.2 mph - N/A   Clear
2:45 AM 55.4 °F 50.0 °F 82% 29.95 in - SSE 4.6 mph - N/A   Clear
3:15 AM 55.4 °F 50.0 °F 82% 29.95 in - SSE 2.3 mph - N/A   Clear
3:45 AM 57.2 °F 53.6 °F 88% 29.95 in - South 6.9 mph - N/A   Clear
4:15 AM 57.2 °F 55.4 °F 94% 29.95 in 6.2 mi SSE 8.1 mph - N/A   Partly Cloudy
4:45 AM 59.0 °F 55.4 °F 88% 29.95 in 6.2 mi South 8.1 mph - N/A   Partly Cloudy
5:15 AM 59.0 °F 57.2 °F 94% 29.95 in 6.2 mi South 8.1 mph - N/A   Partly Cloudy
5:45 AM 59.0 °F 57.2 °F 94% 29.95 in 6.2 mi South 8.1 mph - N/A   Scattered Clouds
6:15 AM 59.0 °F 57.2 °F 94% 29.95 in 6.2 mi South 6.9 mph - N/A   Scattered Clouds
6:45 AM 59.0 °F 57.2 °F 94% 29.95 in 5.0 mi South 9.2 mph - N/A   Scattered Clouds
7:15 AM 59.0 °F 57.2 °F 94% 29.95 in 4.3 mi South 9.2 mph - N/A   Scattered Clouds
7:45 AM 59.0 °F 57.2 °F 94% 29.95 in 3.7 mi South 8.1 mph - N/A   Scattered Clouds
8:15 AM 60.8 °F 59.0 °F 94% 29.98 in 4.3 mi SSW 5.8 mph - N/A Rain Light Rain
8:45 AM 59.0 °F 55.4 °F 88% 29.98 in 5.0 mi WSW 4.6 mph - N/A Rain Light Rain
9:15 AM 59.0 °F 55.4 °F 88% 29.98 in 4.3 mi SSW 3.5 mph - N/A Rain Light Rain
9:45 AM 59.0 °F 55.4 °F 88% 29.98 in 4.3 mi SSW 5.8 mph - N/A Rain Light Rain
10:15 AM 59.0 °F 55.4 °F 88% 29.98 in 4.3 mi South 4.6 mph - N/A Rain Light Rain
10:45 AM 60.8 °F 53.6 °F 77% 30.01 in 4.3 mi SW 4.6 mph - N/A   Mostly Cloudy
11:15 AM 60.8 °F 53.6 °F 77% 30.01 in 4.3 mi SW 4.6 mph - N/A   Mostly Cloudy
11:45 AM 60.8 °F 50.0 °F 68% 30.01 in 5.0 mi SW 4.6 mph - N/A   Mostly Cloudy
12:15 PM 62.6 °F 50.0 °F 63% 30.01 in 5.0 mi West 8.1 mph - N/A   Mostly Cloudy
12:45 PM 62.6 °F 50.0 °F 63% 30.01 in 5.0 mi West 6.9 mph - N/A   Mostly Cloudy
1:15 PM 62.6 °F 50.0 °F 63% 30.01 in 6.2 mi WSW 6.9 mph - N/A   Mostly Cloudy
1:45 PM 60.8 °F 48.2 °F 63% 30.01 in 6.2 mi WSW 6.9 mph - N/A   Mostly Cloudy
2:15 PM 60.8 °F 48.2 °F 63% 30.01 in 6.2 mi West 6.9 mph - N/A   Mostly Cloudy
2:45 PM 60.8 °F 48.2 °F 63% 30.01 in 6.2 mi West 5.8 mph - N/A   Mostly Cloudy
3:15 PM 60.8 °F 48.2 °F 63% 30.01 in 6.2 mi WSW 5.8 mph - N/A   Mostly Cloudy
3:45 PM 60.8 °F 46.4 °F 59% 30.01 in 6.2 mi WSW 5.8 mph - N/A   Mostly Cloudy
4:15 PM 60.8 °F 44.6 °F 55% 30.01 in 6.2 mi WSW 6.9 mph - N/A   Mostly Cloudy
4:45 PM 59.0 °F 46.4 °F 63% 30.01 in 6.2 mi West 5.8 mph - N/A   Scattered Clouds
5:15 PM 59.0 °F 46.4 °F 63% 30.01 in 6.2 mi SW 1.2 mph - N/A   Mostly Cloudy
5:45 PM 59.0 °F 46.4 °F 63% 30.01 in 6.2 mi West 4.6 mph - N/A   Mostly Cloudy
6:15 PM 57.2 °F 44.6 °F 63% 30.01 in 6.2 mi WSW 2.3 mph - N/A   Mostly Cloudy
6:45 PM 57.2 °F 46.4 °F 67% 30.01 in 6.2 mi SW 5.8 mph - N/A   Mostly Cloudy
7:15 PM 57.2 °F 46.4 °F 67% 29.98 in 6.2 mi WSW 3.5 mph - N/A   Mostly Cloudy
7:45 PM 55.4 °F 46.4 °F 72% 30.01 in 6.2 mi SW 4.6 mph - N/A   Mostly Cloudy
8:15 PM 55.4 °F 44.6 °F 67% 30.01 in 6.2 mi SW 4.6 mph - N/A   Mostly Cloudy
8:45 PM 53.6 °F 44.6 °F 72% 30.01 in 6.2 mi SSW 4.6 mph - N/A   Mostly Cloudy
9:15 PM 55.4 °F 46.4 °F 72% 30.01 in 6.2 mi South 3.5 mph - N/A   Scattered Clouds
9:45 PM 53.6 °F 44.6 °F 72% 30.01 in 6.2 mi South 3.5 mph - N/A   Scattered Clouds
10:15 PM 53.6 °F 44.6 °F 72% 30.01 in 6.2 mi South 3.5 mph - N/A   Scattered Clouds
10:45 PM 51.8 °F 44.6 °F 76% 30.01 in 6.2 mi SE 4.6 mph - N/A   Partly Cloudy
11:15 PM 50.0 °F 44.6 °F 82% 30.01 in 6.2 mi SSE 3.5 mph - N/A   Partly Cloudy
11:45 PM 50.0 °F 46.4 °F 87% 30.01 in 6.2 mi SSE 6.9 mph - N/A   Partly Cloudy